sat.trackr.live / text

‹ back to catalog

NUSAT-41 (C PAYNE-G)

NORAD 56944 · 2023-084N

PAYLOAD ACTIVE UNKNOWN

§ Identity

Operator
Country
ARGN
Launch date
2023-06-12
Launch site
AFWTR
Launch vehicle
Mass (kg)
RCS (m²)

External: N2YO · Heavens-Above · Gunter

§ Orbital elements

Epoch: 2026-05-25T04:00:32.479776Z

Period
94.12 min
Inclination
97.5484°
Eccentricity
0.0007815
Mean motion
15.29995252 rev/d
Perigee alt
470.5 km
Apogee alt
481.2 km
Semi-major
6,854.0 km
B*
3.5313e-4
RAAN
281.5147°
Arg perigee
52.5320°
Mean anomaly
307.6630°
Rev number
16,426

§ Raw data

NUSAT-41 (C PAYNE-G)1 56944U 23084N   26145.16704259  .00010187  00000+0  35313-3 0  99912 56944  97.5484 281.5147 0007815  52.5320 307.6630 15.29995252164266

JSON: /api/v1/satellites/56944 · /tle

For live sub-satellite position, see the globe view (requires WebGL).

§ Visibility from observer

Set your observer location to see the next 7 days of passes ≥ 10°. The values pass through the URL so the page stays shareable.

No JS? Fill the form by hand. The geolocation button needs JavaScript.